GEFSSE_prec_meanprecacc_192.txt.gz
Total_Precipitation_Accumulation
0.31 0.45 0.81 0.85 0.70 0.60 0.59 0.67 0.71 0.69 0.66 0.67 0.71 0.70 0.79 0.84 0.85 0.76 0.70 0.80 0.84 0.83 0.84 0.84 0.85 0.85 0.89 0.97 0.97 0.92 0.87 0.88 1.06 1.17 1.36 1.58 1.85 2.08 2.30 2.46 2.44 1.90 1.73
0.12 0.24 0.61 0.70 0.62 0.54 0.52 0.58 0.63 0.64 0.65 0.67 0.64 0.61 0.58 0.59 0.62 0.65 0.71 0.81 0.84 0.84 0.81 0.82 0.79 0.77 0.82 0.81 0.79 0.74 0.80 1.05 1.34 1.56 1.93 2.08 2.22 2.30 2.33 2.44 2.44 1.84 1.65
0.08 0.14 0.40 0.56 0.52 0.49 0.52 0.55 0.55 0.57 0.59 0.67 0.64 0.58 0.53 0.53 0.59 0.68 0.75 0.71 0.78 0.78 0.69 0.72 0.71 0.72 0.77 0.78 0.74 0.74 0.89 1.21 1.69 2.11 2.34 2.16 1.89 2.18 2.24 2.35 2.23 1.64 1.55
0.06 0.09 0.26 0.48 0.46 0.39 0.43 0.47 0.48 0.47 0.48 0.57 0.58 0.55 0.52 0.54 0.62 0.69 0.69 0.66 0.75 0.70 0.68 0.72 0.74 0.69 0.65 0.69 0.74 0.86 1.02 1.27 1.72 2.18 2.09 1.84 1.64 1.80 1.95 1.84 1.75 1.50 1.41
0.08 0.08 0.21 0.38 0.40 0.35 0.36 0.44 0.43 0.38 0.44 0.56 0.58 0.53 0.51 0.56 0.62 0.66 0.67 0.71 0.77 0.80 0.77 0.77 0.74 0.65 0.62 0.64 0.70 0.88 1.10 1.44 1.77 1.86 1.56 1.69 1.84 1.80 1.70 1.58 1.57 1.39 1.16
0.09 0.10 0.18 0.29 0.32 0.33 0.33 0.39 0.39 0.40 0.44 0.55 0.64 0.56 0.53 0.58 0.67 0.75 0.76 0.75 0.71 0.78 0.74 0.74 0.65 0.61 0.57 0.59 0.72 0.89 1.22 1.60 1.58 1.23 1.18 1.41 1.38 1.64 1.57 1.51 1.42 1.23 0.99
0.09 0.12 0.16 0.28 0.35 0.40 0.41 0.41 0.42 0.41 0.40 0.48 0.57 0.54 0.54 0.63 0.73 0.82 0.80 0.73 0.64 0.69 0.68 0.65 0.66 0.66 0.64 0.65 0.76 0.86 1.11 1.42 1.25 1.04 1.07 1.28 1.15 1.35 1.46 1.46 1.43 1.19 0.97
0.11 0.11 0.18 0.29 0.34 0.38 0.43 0.44 0.46 0.44 0.42 0.44 0.53 0.58 0.60 0.65 0.70 0.72 0.76 0.74 0.67 0.64 0.59 0.61 0.62 0.61 0.66 0.70 0.80 0.84 0.98 1.09 0.92 0.84 0.89 0.98 1.01 1.18 1.40 1.31 1.26 1.14 0.94
0.34 0.21 0.22 0.26 0.33 0.39 0.50 0.52 0.49 0.46 0.45 0.46 0.55 0.59 0.57 0.58 0.67 0.68 0.76 0.75 0.70 0.65 0.59 0.61 0.57 0.57 0.64 0.67 0.74 0.79 0.95 1.08 0.90 0.92 0.82 0.80 0.87 1.08 1.35 1.24 1.15 1.14 1.01
0.64 0.40 0.34 0.35 0.45 0.49 0.52 0.50 0.49 0.45 0.44 0.46 0.56 0.58 0.66 0.65 0.71 0.74 0.77 0.79 0.72 0.72 0.66 0.68 0.65 0.64 0.69 0.71 0.78 0.91 1.07 1.02 0.97 1.03 0.89 0.66 0.81 1.10 1.36 1.36 1.32 1.32 1.16
0.97 0.82 0.74 0.64 0.58 0.64 0.60 0.53 0.62 0.59 0.59 0.62 0.72 0.83 0.98 1.12 1.10 1.17 1.00 0.98 0.88 0.92 0.98 0.96 0.93 0.87 0.87 0.82 1.02 1.14 1.06 1.13 1.29 1.18 0.96 0.73 0.86 1.27 1.46 1.52 1.47 1.43 1.38
1.27 1.18 1.21 0.98 0.76 0.70 0.65 0.86 1.10 1.05 1.11 1.19 1.27 1.33 1.58 1.62 1.66 1.34 1.35 1.40 1.37 1.51 1.51 1.53 1.62 1.36 1.08 0.93 1.18 1.33 1.17 1.20 1.31 1.06 0.82 0.82 1.01 1.40 1.59 1.51 1.47 1.44 1.44
1.73 1.50 1.30 1.26 1.18 1.19 1.20 1.21 1.31 1.51 1.62 1.73 1.81 1.86 2.07 1.79 1.65 1.53 1.72 1.89 1.83 1.78 1.64 1.88 2.06 1.68 1.60 1.75 1.76 1.60 1.49 1.35 1.41 1.21 1.03 1.07 1.24 1.56 1.74 1.59 1.58 1.51 1.35
2.37 2.30 2.19 1.95 1.77 1.80 1.65 1.46 1.40 1.44 1.52 1.62 1.75 1.81 2.03 2.14 2.02 2.07 2.21 2.01 1.96 1.99 2.19 2.15 2.36 2.23 2.08 1.92 1.89 1.99 1.93 1.67 1.65 1.58 1.51 1.49 1.56 1.74 1.90 1.80 1.72 1.68 1.52
2.89 3.14 3.57 3.30 2.67 2.31 2.03 1.75 1.44 1.42 1.32 1.29 1.41 1.64 1.81 1.99 2.12 2.24 2.09 1.95 1.70 1.89 2.17 2.28 2.09 2.30 2.28 2.26 2.19 2.18 2.21 1.95 1.79 1.72 1.75 1.92 1.86 1.84 1.99 2.05 1.97 1.93 1.87
3.74 3.77 3.89 4.24 3.59 2.82 2.29 1.95 1.65 1.38 1.40 1.41 1.47 1.49 1.65 1.83 1.90 1.96 1.91 1.86 1.78 1.88 2.07 2.08 2.08 2.34 2.43 2.37 2.06 1.92 1.91 1.95 1.86 1.71 1.85 1.95 1.99 1.82 1.90 2.18 2.29 2.27 2.29
4.32 4.44 4.49 4.69 4.26 3.66 3.09 2.49 1.97 1.71 1.49 1.55 1.63 1.46 1.44 1.59 1.64 1.74 1.76 1.70 1.76 1.75 1.78 1.76 1.84 2.06 2.06 2.01 1.84 1.71 1.74 1.82 1.86 1.84 1.73 1.76 1.88 1.94 1.90 2.07 2.26 2.30 2.45
4.99 5.22 5.24 4.99 4.80 4.28 3.63 3.05 2.61 2.30 1.99 1.77 1.66 1.48 1.30 1.37 1.41 1.50 1.42 1.42 1.43 1.40 1.40 1.52 1.59 1.77 1.92 2.00 1.97 1.78 1.85 1.94 1.82 1.90 1.87 1.80 2.04 1.90 2.16 2.28 2.27 2.22 2.48
6.18 6.59 6.35 5.65 5.13 4.55 3.94 3.43 3.21 2.98 2.54 2.11 1.94 1.73 1.52 1.37 1.32 1.36 1.38 1.38 1.17 1.21 1.24 1.19 1.41 1.62 1.84 1.90 1.67 1.72 1.62 1.65 1.67 1.60 1.80 1.69 1.84 1.95 2.13 2.20 2.30 2.21 2.50
6.52 7.21 7.08 6.38 5.47 4.73 4.28 3.80 3.56 3.26 2.78 2.27 2.04 1.90 1.68 1.54 1.35 1.29 1.20 1.14 1.01 1.13 1.27 1.35 1.65 1.65 1.59 1.63 1.43 1.61 1.51 1.33 1.43 1.54 1.53 1.62 1.67 1.51 1.77 2.02 2.25 1.93 2.26
5.50 6.08 5.92 5.27 4.75 4.13 3.57 3.01 2.86 2.62 2.35 2.09 1.88 1.65 1.63 1.55 1.35 1.31 1.19 1.27 1.09 1.09 1.11 1.12 1.29 1.37 1.31 1.38 1.68 1.78 1.49 1.25 1.31 1.35 1.35 1.56 1.59 1.53 1.84 2.19 2.30 2.22 1.95
3.99 4.24 3.74 3.52 3.49 3.06 2.72 2.62 2.46 2.25 2.03 1.81 1.68 1.59 1.33 1.29 1.22 1.15 1.26 1.19 1.12 1.16 1.10 1.12 1.26 1.33 1.31 1.36 1.55 1.71 1.54 1.58 1.47 1.14 1.34 1.44 1.50 1.66 1.78 1.91 2.17 2.37 2.05
2.79 2.77 2.55 2.47 2.75 2.66 2.59 2.49 2.39 2.32 2.23 1.96 1.63 1.53 1.27 1.13 1.10 1.16 1.16 1.19 1.22 1.03 1.11 1.19 1.17 1.22 1.26 1.24 1.27 1.51 1.55 1.56 1.39 1.15 1.19 1.24 1.38 1.61 1.68 1.80 1.67 1.81 1.94
1.90 1.99 2.24 2.30 2.41 2.32 2.35 2.13 1.90 1.75 1.62 1.52 1.45 1.43 1.42 1.24 1.13 1.05 1.08 1.24 1.25 1.08 1.20 0.96 1.02 1.21 1.26 1.11 1.10 1.11 1.16 1.30 1.42 1.40 1.26 1.18 1.24 1.33 1.42 1.51 1.55 1.63 1.69
1.46 1.70 2.07 2.15 2.16 2.05 2.00 2.00 2.01 1.88 1.82 1.68 1.61 1.67 1.66 1.63 1.43 1.15 1.08 1.22 1.30 1.24 1.27 1.16 1.31 1.20 1.11 1.05 1.06 1.13 1.16 1.11 1.06 1.28 1.37 1.30 1.26 1.09 1.12 1.19 1.27 1.37 1.41
1.30 1.41 1.61 1.78 1.95 1.99 2.01 2.07 2.02 1.96 1.98 1.79 1.62 1.53 1.52 1.54 1.50 1.39 1.29 1.39 1.42 1.35 1.34 1.27 1.31 1.27 1.23 1.20 1.08 1.04 1.25 1.22 1.09 1.21 1.16 1.16 1.14 0.90 0.94 1.05 1.09 1.17 1.26

GEFSSE_prec_meanprecacc_198.txt.gz
Total_Precipitation_Accumulation
0.34 0.47 0.85 0.92 0.79 0.71 0.70 0.77 0.81 0.79 0.78 0.80 0.83 0.84 0.91 0.96 1.00 0.93 0.86 0.96 0.99 0.99 1.00 1.00 0.99 0.96 0.97 1.05 1.06 0.98 0.92 0.92 1.10 1.21 1.41 1.63 1.91 2.15 2.36 2.53 2.51 1.96 1.78
0.14 0.26 0.66 0.77 0.72 0.64 0.66 0.70 0.70 0.72 0.74 0.78 0.76 0.73 0.68 0.70 0.75 0.77 0.82 0.94 0.98 0.97 0.95 0.96 0.91 0.86 0.89 0.88 0.88 0.79 0.83 1.09 1.38 1.61 1.97 2.13 2.29 2.37 2.39 2.51 2.53 1.92 1.71
0.10 0.16 0.45 0.63 0.61 0.61 0.65 0.66 0.65 0.67 0.68 0.76 0.75 0.69 0.62 0.62 0.72 0.81 0.86 0.83 0.93 0.92 0.83 0.85 0.81 0.80 0.83 0.86 0.81 0.79 0.93 1.24 1.74 2.19 2.43 2.27 1.98 2.24 2.31 2.43 2.31 1.72 1.61
0.08 0.12 0.31 0.54 0.55 0.50 0.53 0.57 0.58 0.57 0.56 0.66 0.69 0.67 0.62 0.64 0.75 0.85 0.82 0.79 0.92 0.86 0.84 0.85 0.84 0.76 0.72 0.77 0.82 0.92 1.06 1.32 1.79 2.29 2.25 2.02 1.76 1.86 2.01 1.90 1.80 1.56 1.49
0.10 0.11 0.24 0.43 0.45 0.41 0.42 0.52 0.54 0.47 0.51 0.66 0.72 0.69 0.65 0.71 0.78 0.83 0.81 0.85 0.94 0.97 0.93 0.91 0.86 0.74 0.71 0.73 0.77 0.94 1.15 1.48 1.83 1.98 1.70 1.83 1.97 1.86 1.75 1.65 1.63 1.44 1.23
0.11 0.12 0.21 0.34 0.35 0.38 0.40 0.48 0.48 0.50 0.54 0.66 0.78 0.72 0.66 0.71 0.84 0.91 0.90 0.91 0.86 0.92 0.88 0.87 0.77 0.72 0.66 0.66 0.80 0.95 1.26 1.63 1.65 1.36 1.32 1.53 1.48 1.69 1.61 1.56 1.46 1.27 1.03
0.10 0.14 0.18 0.37 0.43 0.47 0.49 0.48 0.50 0.50 0.50 0.62 0.71 0.64 0.67 0.81 0.96 1.05 1.00 0.93 0.79 0.83 0.79 0.75 0.75 0.74 0.70 0.70 0.82 0.91 1.16 1.48 1.33 1.15 1.18 1.37 1.22 1.39 1.51 1.50 1.46 1.22 1.00
0.12 0.14 0.21 0.34 0.42 0.48 0.52 0.52 0.54 0.52 0.52 0.61 0.74 0.69 0.72 0.88 0.99 1.00 1.01 0.94 0.81 0.76 0.69 0.69 0.68 0.67 0.69 0.73 0.83 0.88 1.02 1.14 0.98 0.90 0.96 1.04 1.04 1.20 1.42 1.35 1.30 1.18 0.97
0.35 0.26 0.26 0.34 0.49 0.58 0.66 0.66 0.62 0.59 0.57 0.67 0.81 0.74 0.70 0.72 0.83 0.86 0.93 0.88 0.81 0.76 0.68 0.69 0.63 0.62 0.68 0.70 0.77 0.82 0.97 1.12 0.94 0.97 0.87 0.85 0.89 1.09 1.37 1.27 1.19 1.17 1.04
0.66 0.42 0.37 0.40 0.55 0.63 0.67 0.66 0.66 0.61 0.62 0.65 0.74 0.75 0.79 0.77 0.82 0.85 0.87 0.88 0.82 0.81 0.73 0.74 0.70 0.67 0.73 0.74 0.81 0.94 1.09 1.06 1.01 1.08 0.95 0.69 0.83 1.11 1.37 1.38 1.36 1.35 1.19
0.98 0.84 0.76 0.67 0.62 0.72 0.72 0.68 0.79 0.79 0.82 0.83 0.89 1.01 1.14 1.30 1.24 1.29 1.09 1.05 0.95 0.99 1.04 1.00 0.97 0.91 0.91 0.85 1.06 1.17 1.08 1.17 1.31 1.23 1.02 0.76 0.87 1.28 1.47 1.54 1.50 1.45 1.41
1.28 1.21 1.23 1.00 0.78 0.76 0.73 0.97 1.28 1.26 1.34 1.39 1.46 1.52 1.77 1.81 1.86 1.47 1.44 1.46 1.44 1.57 1.56 1.58 1.66 1.40 1.13 0.96 1.21 1.36 1.20 1.22 1.34 1.10 0.86 0.83 1.01 1.41 1.60 1.54 1.51 1.47 1.47
1.73 1.51 1.32 1.29 1.21 1.23 1.26 1.28 1.41 1.67 1.82 1.89 1.96 2.02 2.21 1.93 1.80 1.65 1.82 2.00 1.96 1.85 1.70 1.93 2.11 1.74 1.65 1.81 1.81 1.63 1.51 1.36 1.42 1.23 1.06 1.08 1.24 1.57 1.75 1.61 1.61 1.54 1.38
2.37 2.30 2.19 1.97 1.82 1.85 1.70 1.51 1.46 1.52 1.62 1.71 1.85 1.94 2.12 2.26 2.15 2.19 2.35 2.15 2.08 2.09 2.30 2.24 2.43 2.28 2.11 1.96 1.92 2.02 1.95 1.69 1.67 1.62 1.55 1.51 1.56 1.75 1.91 1.81 1.73 1.70 1.55
2.90 3.15 3.58 3.33 2.71 2.36 2.09 1.81 1.48 1.48 1.37 1.33 1.46 1.73 1.89 2.07 2.21 2.34 2.19 2.07 1.80 1.97 2.24 2.36 2.13 2.34 2.31 2.30 2.23 2.21 2.23 1.97 1.83 1.77 1.81 1.94 1.86 1.84 2.00 2.06 1.98 1.95 1.89
3.74 3.77 3.91 4.27 3.62 2.86 2.35 2.01 1.69 1.42 1.43 1.44 1.55 1.53 1.71 1.91 1.98 2.04 1.98 1.96 1.87 1.94 2.12 2.14 2.13 2.39 2.49 2.43 2.10 1.95 1.94 1.98 1.90 1.75 1.89 1.98 2.00 1.82 1.91 2.19 2.30 2.30 2.32
4.33 4.45 4.51 4.71 4.28 3.70 3.13 2.53 1.99 1.73 1.50 1.57 1.68 1.49 1.49 1.65 1.71 1.79 1.82 1.77 1.84 1.80 1.82 1.81 1.89 2.11 2.12 2.07 1.89 1.75 1.79 1.85 1.90 1.87 1.77 1.82 1.92 1.97 1.93 2.08 2.28 2.34 2.51
5.00 5.23 5.25 5.00 4.81 4.31 3.67 3.08 2.63 2.32 2.01 1.81 1.70 1.52 1.34 1.41 1.46 1.57 1.50 1.49 1.47 1.44 1.45 1.58 1.66 1.84 2.00 2.06 2.02 1.82 1.89 1.98 1.84 1.92 1.90 1.85 2.11 1.97 2.20 2.30 2.29 2.25 2.52
6.18 6.60 6.36 5.68 5.16 4.58 3.97 3.47 3.25 3.02 2.59 2.15 1.99 1.78 1.58 1.40 1.35 1.44 1.46 1.46 1.22 1.26 1.29 1.25 1.49 1.69 1.93 1.97 1.71 1.76 1.65 1.68 1.71 1.62 1.83 1.73 1.89 2.01 2.20 2.24 2.33 2.24 2.54
6.52 7.21 7.09 6.39 5.50 4.77 4.31 3.84 3.60 3.29 2.83 2.31 2.09 1.96 1.72 1.58 1.37 1.33 1.27 1.20 1.06 1.19 1.35 1.44 1.77 1.74 1.68 1.70 1.47 1.69 1.56 1.37 1.46 1.58 1.57 1.67 1.72 1.56 1.82 2.09 2.32 1.96 2.29
5.50 6.08 5.93 5.30 4.79 4.18 3.62 3.06 2.91 2.68 2.41 2.15 1.92 1.68 1.65 1.58 1.38 1.35 1.26 1.36 1.15 1.16 1.19 1.19 1.39 1.49 1.41 1.45 1.78 1.88 1.55 1.29 1.34 1.38 1.39 1.60 1.65 1.59 1.88 2.26 2.39 2.31 2.01
3.99 4.25 3.75 3.54 3.51 3.09 2.76 2.67 2.51 2.31 2.08 1.87 1.73 1.65 1.37 1.33 1.26 1.19 1.33 1.27 1.21 1.26 1.19 1.21 1.37 1.47 1.44 1.47 1.65 1.85 1.66 1.68 1.54 1.19 1.39 1.48 1.55 1.71 1.83 1.97 2.26 2.48 2.13
2.79 2.77 2.55 2.48 2.77 2.68 2.62 2.53 2.43 2.38 2.29 2.03 1.69 1.61 1.32 1.16 1.13 1.21 1.21 1.27 1.31 1.11 1.23 1.33 1.30 1.36 1.40 1.35 1.37 1.65 1.70 1.72 1.53 1.23 1.24 1.29 1.44 1.68 1.75 1.87 1.74 1.89 2.03
1.90 1.99 2.24 2.31 2.42 2.33 2.37 2.16 1.95 1.81 1.69 1.59 1.51 1.52 1.49 1.29 1.16 1.09 1.13 1.31 1.34 1.17 1.34 1.07 1.16 1.36 1.41 1.25 1.25 1.24 1.27 1.44 1.57 1.54 1.36 1.26 1.31 1.40 1.48 1.57 1.62 1.70 1.79
1.46 1.70 2.07 2.15 2.18 2.07 2.02 2.02 2.05 1.93 1.89 1.75 1.67 1.77 1.74 1.69 1.47 1.18 1.13 1.30 1.39 1.33 1.36 1.26 1.48 1.33 1.23 1.17 1.19 1.27 1.29 1.26 1.19 1.43 1.51 1.43 1.35 1.16 1.18 1.27 1.34 1.45 1.50
1.30 1.41 1.62 1.79 1.98 2.02 2.03 2.09 2.04 2.00 2.04 1.86 1.69 1.59 1.57 1.60 1.54 1.42 1.33 1.47 1.50 1.43 1.42 1.36 1.43 1.38 1.35 1.33 1.20 1.16 1.38 1.36 1.24 1.39 1.32 1.29 1.25 0.98 1.00 1.11 1.16 1.26 1.36

GEFSSE_prec_meanprecacc_204.txt.gz
Total_Precipitation_Accumulation
0.38 0.50 0.88 0.95 0.83 0.77 0.79 0.88 0.93 0.89 0.87 0.87 0.91 0.93 1.02 1.09 1.10 1.03 1.00 1.13 1.15 1.15 1.14 1.10 1.06 1.01 1.03 1.12 1.12 1.02 0.96 0.97 1.16 1.29 1.48 1.70 1.96 2.19 2.40 2.60 2.55 1.99 1.83
0.16 0.28 0.68 0.79 0.75 0.68 0.72 0.76 0.77 0.77 0.80 0.82 0.81 0.81 0.79 0.80 0.83 0.87 0.94 1.09 1.10 1.09 1.06 1.05 0.97 0.90 0.94 0.92 0.92 0.83 0.86 1.12 1.43 1.69 2.06 2.21 2.34 2.41 2.43 2.56 2.58 1.95 1.76
0.12 0.18 0.47 0.66 0.66 0.67 0.72 0.71 0.70 0.72 0.73 0.81 0.80 0.77 0.71 0.71 0.80 0.90 0.97 0.95 1.04 1.04 0.93 0.93 0.87 0.84 0.88 0.90 0.85 0.83 0.97 1.28 1.79 2.27 2.51 2.31 2.01 2.28 2.35 2.46 2.34 1.76 1.64
0.10 0.13 0.34 0.61 0.64 0.64 0.63 0.63 0.63 0.62 0.60 0.70 0.75 0.74 0.71 0.72 0.83 0.95 0.92 0.88 1.04 0.98 0.93 0.93 0.90 0.82 0.76 0.80 0.87 0.97 1.12 1.37 1.86 2.37 2.31 2.05 1.78 1.91 2.04 1.93 1.84 1.59 1.51
0.11 0.11 0.25 0.47 0.54 0.54 0.56 0.61 0.59 0.52 0.55 0.70 0.77 0.75 0.71 0.77 0.86 0.92 0.89 0.95 1.06 1.09 1.03 0.99 0.93 0.79 0.75 0.75 0.81 0.99 1.19 1.54 1.92 2.06 1.75 1.84 1.98 1.89 1.78 1.68 1.66 1.47 1.26
0.12 0.13 0.21 0.35 0.37 0.41 0.45 0.53 0.52 0.53 0.57 0.70 0.82 0.76 0.71 0.76 0.92 1.02 0.99 0.99 0.97 1.04 1.00 0.95 0.84 0.76 0.70 0.69 0.83 0.99 1.31 1.70 1.73 1.43 1.37 1.54 1.48 1.71 1.63 1.57 1.48 1.28 1.05
0.14 0.18 0.21 0.40 0.45 0.50 0.51 0.51 0.53 0.52 0.52 0.64 0.74 0.68 0.72 0.87 1.04 1.18 1.11 1.01 0.90 0.97 0.91 0.83 0.81 0.79 0.74 0.73 0.86 0.95 1.20 1.56 1.41 1.25 1.24 1.39 1.23 1.41 1.53 1.52 1.47 1.22 1.01
0.17 0.21 0.27 0.39 0.45 0.51 0.54 0.54 0.56 0.54 0.55 0.65 0.79 0.73 0.78 0.99 1.12 1.18 1.17 1.08 0.94 0.90 0.80 0.76 0.72 0.70 0.72 0.76 0.87 0.92 1.07 1.21 1.05 0.98 1.03 1.08 1.07 1.22 1.44 1.36 1.31 1.19 0.98
0.37 0.29 0.30 0.40 0.54 0.62 0.70 0.68 0.65 0.63 0.62 0.74 0.91 0.83 0.87 0.97 1.10 1.12 1.11 1.02 0.94 0.88 0.78 0.76 0.68 0.64 0.70 0.72 0.79 0.85 1.02 1.20 1.02 1.04 0.96 0.91 0.92 1.11 1.38 1.28 1.20 1.18 1.05
0.67 0.45 0.41 0.47 0.62 0.70 0.73 0.71 0.72 0.66 0.68 0.74 0.84 0.86 1.00 1.01 1.04 1.02 0.99 0.98 0.93 0.92 0.81 0.80 0.74 0.70 0.75 0.76 0.83 0.96 1.14 1.14 1.08 1.14 1.02 0.73 0.85 1.14 1.40 1.40 1.36 1.36 1.20
1.00 0.86 0.79 0.71 0.68 0.81 0.81 0.77 0.88 0.87 0.90 0.92 0.97 1.11 1.26 1.42 1.34 1.36 1.15 1.12 1.03 1.05 1.10 1.06 1.02 0.95 0.93 0.87 1.08 1.20 1.12 1.22 1.37 1.29 1.09 0.79 0.90 1.31 1.49 1.55 1.51 1.46 1.42
1.30 1.23 1.25 1.05 0.86 0.84 0.81 1.07 1.38 1.37 1.46 1.50 1.56 1.61 1.84 1.89 1.93 1.53 1.52 1.54 1.53 1.65 1.63 1.64 1.71 1.43 1.14 0.97 1.23 1.39 1.26 1.28 1.38 1.15 0.94 0.89 1.05 1.44 1.64 1.56 1.52 1.48 1.48
1.74 1.52 1.34 1.32 1.26 1.27 1.34 1.39 1.53 1.82 1.98 2.01 2.05 2.08 2.26 2.02 1.91 1.72 1.89 2.07 2.03 1.92 1.74 1.98 2.15 1.77 1.68 1.83 1.84 1.69 1.57 1.41 1.46 1.27 1.11 1.14 1.29 1.61 1.79 1.64 1.63 1.56 1.41
2.38 2.31 2.21 1.98 1.85 1.88 1.77 1.60 1.57 1.65 1.73 1.80 1.91 1.99 2.17 2.36 2.28 2.27 2.42 2.19 2.12 2.12 2.32 2.26 2.45 2.32 2.17 2.01 1.98 2.08 1.99 1.72 1.70 1.66 1.60 1.55 1.60 1.80 1.95 1.84 1.76 1.72 1.57
2.90 3.15 3.59 3.34 2.72 2.38 2.13 1.87 1.57 1.58 1.45 1.39 1.52 1.78 1.92 2.12 2.29 2.42 2.24 2.11 1.83 1.99 2.26 2.38 2.17 2.38 2.37 2.35 2.30 2.27 2.28 2.01 1.85 1.80 1.85 2.02 1.94 1.88 2.04 2.10 2.01 1.97 1.90
3.74 3.78 3.92 4.28 3.63 2.87 2.36 2.04 1.76 1.50 1.51 1.50 1.62 1.58 1.76 1.96 2.04 2.10 2.02 1.99 1.90 1.98 2.16 2.17 2.16 2.43 2.53 2.47 2.15 2.00 1.99 2.02 1.93 1.79 1.93 2.03 2.05 1.86 1.95 2.23 2.34 2.33 2.35
4.33 4.45 4.51 4.71 4.29 3.71 3.13 2.54 2.02 1.78 1.57 1.63 1.75 1.54 1.56 1.71 1.76 1.85 1.86 1.81 1.87 1.83 1.85 1.84 1.92 2.15 2.15 2.11 1.93 1.79 1.83 1.89 1.93 1.90 1.81 1.86 1.96 2.02 1.98 2.14 2.33 2.39 2.57
5.00 5.23 5.25 5.00 4.82 4.31 3.67 3.09 2.65 2.36 2.05 1.85 1.75 1.58 1.40 1.47 1.52 1.63 1.55 1.53 1.52 1.48 1.48 1.64 1.72 1.90 2.05 2.11 2.05 1.85 1.92 2.00 1.87 1.95 1.93 1.89 2.15 2.00 2.24 2.37 2.35 2.31 2.59
6.18 6.60 6.37 5.68 5.16 4.58 3.97 3.47 3.27 3.06 2.62 2.18 2.03 1.83 1.63 1.45 1.41 1.50 1.50 1.50 1.27 1.30 1.33 1.31 1.57 1.75 1.99 2.01 1.73 1.79 1.67 1.71 1.74 1.64 1.86 1.76 1.93 2.06 2.25 2.32 2.40 2.29 2.60
6.52 7.21 7.10 6.40 5.50 4.77 4.32 3.85 3.61 3.31 2.85 2.34 2.15 2.00 1.75 1.62 1.43 1.39 1.31 1.24 1.10 1.24 1.40 1.51 1.85 1.79 1.72 1.73 1.51 1.74 1.60 1.40 1.50 1.62 1.61 1.70 1.77 1.63 1.89 2.17 2.40 2.01 2.35
5.51 6.09 5.93 5.30 4.79 4.18 3.63 3.07 2.92 2.69 2.43 2.17 1.96 1.72 1.68 1.61 1.43 1.40 1.30 1.40 1.19 1.20 1.22 1.25 1.44 1.53 1.45 1.49 1.84 1.96 1.62 1.36 1.40 1.44 1.45 1.68 1.74 1.70 1.96 2.33 2.47 2.38 2.09
3.99 4.25 3.75 3.54 3.52 3.10 2.77 2.68 2.52 2.33 2.10 1.88 1.75 1.68 1.39 1.36 1.29 1.22 1.37 1.30 1.24 1.29 1.22 1.25 1.42 1.52 1.48 1.52 1.73 1.93 1.73 1.78 1.63 1.24 1.46 1.55 1.61 1.79 1.93 2.05 2.35 2.57 2.25
2.79 2.78 2.55 2.48 2.77 2.69 2.62 2.53 2.45 2.39 2.30 2.04 1.71 1.64 1.34 1.18 1.15 1.23 1.23 1.29 1.34 1.12 1.25 1.36 1.35 1.41 1.45 1.41 1.43 1.72 1.77 1.78 1.59 1.29 1.29 1.35 1.52 1.78 1.90 2.02 1.88 2.04 2.20
1.90 2.00 2.24 2.31 2.42 2.34 2.38 2.17 1.96 1.81 1.70 1.60 1.52 1.54 1.51 1.32 1.19 1.11 1.14 1.33 1.36 1.19 1.35 1.09 1.19 1.40 1.45 1.29 1.32 1.31 1.34 1.50 1.62 1.60 1.41 1.32 1.39 1.50 1.61 1.74 1.85 1.93 1.98
1.46 1.70 2.08 2.16 2.18 2.08 2.02 2.03 2.05 1.94 1.90 1.76 1.68 1.78 1.76 1.72 1.50 1.21 1.15 1.31 1.40 1.35 1.37 1.28 1.50 1.36 1.27 1.22 1.26 1.33 1.36 1.33 1.23 1.47 1.55 1.48 1.42 1.24 1.27 1.38 1.48 1.56 1.58
1.31 1.42 1.63 1.80 1.98 2.03 2.04 2.09 2.05 2.00 2.05 1.87 1.71 1.61 1.59 1.62 1.55 1.45 1.35 1.48 1.51 1.45 1.45 1.39 1.45 1.40 1.38 1.36 1.25 1.23 1.45 1.43 1.31 1.44 1.36 1.32 1.29 1.03 1.05 1.19 1.25 1.34 1.43

GEFSSE_prec_meanprecacc_210.txt.gz
Total_Precipitation_Accumulation
0.41 0.56 1.03 1.11 1.00 0.92 0.91 1.01 1.08 1.06 1.03 1.01 1.06 1.11 1.22 1.26 1.27 1.21 1.19 1.32 1.36 1.34 1.28 1.21 1.17 1.12 1.12 1.21 1.19 1.09 1.02 1.03 1.23 1.34 1.53 1.75 2.00 2.23 2.45 2.64 2.57 2.00 1.87
0.18 0.32 0.78 0.89 0.85 0.78 0.81 0.86 0.91 0.90 0.92 0.93 0.92 0.96 0.93 0.93 0.97 1.00 1.08 1.27 1.30 1.27 1.21 1.19 1.08 1.00 1.03 0.98 0.97 0.88 0.91 1.17 1.49 1.76 2.14 2.29 2.42 2.47 2.48 2.59 2.61 1.99 1.83
0.14 0.21 0.53 0.72 0.71 0.73 0.79 0.79 0.81 0.82 0.81 0.89 0.88 0.88 0.85 0.81 0.89 1.00 1.08 1.10 1.23 1.21 1.08 1.06 0.97 0.92 0.95 0.94 0.89 0.87 1.02 1.32 1.84 2.34 2.58 2.35 2.06 2.35 2.42 2.50 2.38 1.82 1.71
0.12 0.17 0.39 0.66 0.70 0.71 0.72 0.71 0.72 0.70 0.66 0.76 0.80 0.81 0.83 0.82 0.91 1.04 1.02 1.04 1.22 1.13 1.06 1.02 1.00 0.90 0.82 0.84 0.91 1.01 1.17 1.43 1.91 2.42 2.33 2.06 1.79 1.95 2.10 1.98 1.89 1.65 1.56
0.13 0.14 0.30 0.55 0.66 0.67 0.64 0.68 0.65 0.57 0.60 0.75 0.81 0.80 0.80 0.86 0.96 1.01 1.00 1.11 1.27 1.26 1.16 1.08 1.02 0.87 0.82 0.82 0.88 1.04 1.25 1.61 1.99 2.10 1.76 1.84 1.99 1.92 1.84 1.73 1.73 1.54 1.31
0.14 0.15 0.25 0.41 0.47 0.51 0.51 0.59 0.57 0.57 0.62 0.74 0.86 0.80 0.77 0.84 1.03 1.12 1.10 1.17 1.21 1.21 1.12 1.05 0.93 0.85 0.78 0.77 0.91 1.07 1.38 1.78 1.79 1.45 1.38 1.55 1.50 1.74 1.68 1.63 1.53 1.34 1.11
0.15 0.20 0.24 0.43 0.49 0.54 0.56 0.56 0.58 0.56 0.56 0.69 0.78 0.72 0.76 0.93 1.13 1.27 1.23 1.21 1.13 1.10 1.01 0.92 0.88 0.85 0.80 0.80 0.93 1.01 1.26 1.63 1.45 1.27 1.26 1.39 1.24 1.45 1.57 1.57 1.53 1.27 1.05
0.19 0.24 0.30 0.44 0.51 0.55 0.58 0.58 0.61 0.59 0.60 0.70 0.83 0.79 0.84 1.05 1.20 1.28 1.32 1.30 1.17 1.07 0.91 0.84 0.78 0.75 0.77 0.81 0.92 0.97 1.13 1.26 1.09 1.01 1.04 1.08 1.08 1.25 1.47 1.39 1.35 1.23 1.01
0.38 0.31 0.33 0.43 0.59 0.66 0.73 0.71 0.69 0.69 0.69 0.80 0.96 0.89 0.94 1.06 1.21 1.28 1.31 1.21 1.13 1.07 0.92 0.83 0.72 0.68 0.75 0.78 0.86 0.91 1.08 1.25 1.05 1.05 0.97 0.91 0.94 1.14 1.41 1.30 1.23 1.21 1.07
0.68 0.47 0.44 0.50 0.64 0.72 0.75 0.74 0.76 0.72 0.74 0.81 0.91 0.95 1.13 1.18 1.23 1.26 1.23 1.17 1.10 1.07 0.93 0.86 0.78 0.74 0.80 0.81 0.90 1.04 1.21 1.19 1.10 1.15 1.02 0.74 0.87 1.17 1.43 1.43 1.40 1.38 1.21
1.01 0.88 0.83 0.74 0.70 0.83 0.83 0.80 0.93 0.93 0.96 0.98 1.04 1.21 1.41 1.63 1.60 1.58 1.32 1.30 1.24 1.20 1.20 1.13 1.07 0.98 0.97 0.92 1.15 1.26 1.17 1.24 1.38 1.31 1.10 0.80 0.92 1.36 1.56 1.60 1.54 1.49 1.45
1.30 1.25 1.28 1.07 0.89 0.87 0.84 1.10 1.42 1.42 1.51 1.54 1.61 1.70 1.99 2.07 2.10 1.65 1.65 1.73 1.75 1.80 1.73 1.72 1.77 1.47 1.17 1.00 1.28 1.44 1.28 1.30 1.40 1.18 0.96 0.90 1.07 1.48 1.69 1.60 1.55 1.51 1.51
1.75 1.53 1.34 1.34 1.31 1.32 1.39 1.44 1.57 1.87 2.03 2.05 2.10 2.13 2.32 2.10 2.00 1.80 1.98 2.20 2.16 2.01 1.81 2.04 2.20 1.79 1.69 1.85 1.87 1.73 1.60 1.44 1.47 1.28 1.13 1.15 1.31 1.65 1.85 1.69 1.67 1.60 1.44
2.38 2.31 2.21 2.00 1.89 1.95 1.83 1.66 1.62 1.72 1.81 1.85 1.94 2.03 2.20 2.40 2.31 2.29 2.44 2.23 2.17 2.17 2.37 2.29 2.47 2.34 2.19 2.03 2.00 2.11 2.02 1.74 1.70 1.66 1.62 1.58 1.65 1.86 2.02 1.91 1.82 1.78 1.64
2.90 3.15 3.59 3.34 2.75 2.46 2.22 1.94 1.62 1.66 1.53 1.43 1.55 1.82 1.95 2.14 2.31 2.43 2.26 2.12 1.85 2.02 2.29 2.40 2.19 2.41 2.39 2.37 2.34 2.33 2.32 2.03 1.86 1.82 1.87 2.05 2.00 1.95 2.12 2.17 2.06 2.02 1.95
3.75 3.78 3.92 4.28 3.65 2.95 2.46 2.11 1.83 1.60 1.60 1.55 1.66 1.62 1.80 1.99 2.07 2.13 2.04 2.00 1.91 1.98 2.17 2.18 2.18 2.45 2.55 2.49 2.19 2.04 2.03 2.04 1.95 1.81 1.95 2.07 2.11 1.91 2.00 2.29 2.39 2.38 2.40
4.33 4.45 4.51 4.71 4.30 3.75 3.20 2.60 2.10 1.88 1.66 1.69 1.79 1.59 1.60 1.75 1.80 1.88 1.89 1.83 1.89 1.84 1.87 1.87 1.95 2.18 2.17 2.14 1.96 1.83 1.86 1.91 1.96 1.92 1.82 1.88 1.99 2.06 2.04 2.19 2.38 2.45 2.64
5.01 5.23 5.25 5.00 4.82 4.32 3.70 3.14 2.71 2.44 2.14 1.91 1.80 1.63 1.44 1.51 1.55 1.66 1.58 1.56 1.55 1.50 1.50 1.67 1.77 1.95 2.09 2.13 2.08 1.88 1.95 2.03 1.90 1.96 1.94 1.90 2.16 2.02 2.28 2.43 2.41 2.37 2.66
6.18 6.60 6.37 5.69 5.17 4.59 3.99 3.51 3.33 3.12 2.70 2.24 2.07 1.87 1.68 1.50 1.45 1.53 1.54 1.54 1.31 1.34 1.37 1.35 1.63 1.80 2.02 2.04 1.77 1.82 1.71 1.75 1.78 1.67 1.87 1.77 1.94 2.08 2.27 2.36 2.48 2.38 2.67
6.52 7.22 7.10 6.42 5.53 4.79 4.34 3.89 3.67 3.35 2.90 2.39 2.19 2.07 1.81 1.68 1.47 1.42 1.35 1.29 1.15 1.28 1.43 1.56 1.93 1.85 1.77 1.78 1.54 1.77 1.63 1.43 1.53 1.64 1.63 1.73 1.81 1.68 1.93 2.22 2.47 2.08 2.44
5.51 6.10 5.96 5.33 4.81 4.20 3.65 3.09 2.97 2.72 2.45 2.21 2.00 1.76 1.72 1.68 1.49 1.45 1.36 1.46 1.24 1.24 1.26 1.30 1.49 1.59 1.51 1.54 1.87 2.00 1.64 1.38 1.43 1.46 1.47 1.71 1.79 1.75 2.01 2.37 2.51 2.44 2.15
3.99 4.25 3.75 3.54 3.52 3.11 2.78 2.70 2.54 2.35 2.11 1.90 1.78 1.71 1.43 1.42 1.37 1.29 1.45 1.38 1.30 1.34 1.27 1.28 1.46 1.57 1.53 1.57 1.77 1.97 1.75 1.80 1.65 1.27 1.49 1.59 1.64 1.84 1.97 2.09 2.39 2.61 2.30
2.79 2.78 2.56 2.49 2.78 2.70 2.64 2.55 2.47 2.41 2.32 2.06 1.72 1.66 1.39 1.23 1.23 1.32 1.32 1.39 1.42 1.19 1.30 1.39 1.38 1.45 1.50 1.45 1.46 1.74 1.78 1.81 1.62 1.31 1.30 1.37 1.54 1.80 1.92 2.04 1.91 2.09 2.25
1.90 2.00 2.25 2.32 2.43 2.35 2.39 2.18 1.97 1.83 1.71 1.60 1.52 1.55 1.55 1.36 1.25 1.18 1.21 1.41 1.45 1.26 1.40 1.12 1.23 1.43 1.49 1.33 1.35 1.34 1.37 1.52 1.64 1.62 1.42 1.33 1.41 1.52 1.64 1.76 1.89 2.00 2.06
1.46 1.70 2.09 2.16 2.19 2.08 2.04 2.04 2.06 1.94 1.90 1.77 1.68 1.80 1.78 1.75 1.55 1.27 1.22 1.39 1.50 1.44 1.44 1.32 1.53 1.38 1.30 1.26 1.29 1.37 1.40 1.36 1.26 1.50 1.57 1.49 1.43 1.25 1.28 1.40 1.51 1.61 1.65
1.31 1.42 1.63 1.81 1.99 2.04 2.05 2.10 2.06 2.01 2.06 1.88 1.72 1.62 1.60 1.64 1.58 1.48 1.41 1.56 1.60 1.53 1.52 1.44 1.49 1.42 1.40 1.40 1.29 1.26 1.49 1.48 1.35 1.48 1.38 1.34 1.31 1.05 1.08 1.21 1.28 1.37 1.48